RH
40 38 35 29 30 29 29 32 36 41 38 31 31 59 57 33 27 18 18 19 20 23 25 29 32 32 32 33 34 38 47 47 33 46 35 38 36 48 52 61 74 100 100
48 45 36 29 29 27 34 37 35 31 30 30 25 54 92 60 36 26 21 20 21 25 28 31 32 34 34 36 40 42 44 43 34 55 39 42 40 41 41 54 63 100 100
28 45 35 27 29 31 38 41 39 42 42 32 33 29 34 46 34 28 26 27 28 30 31 34 35 35 38 40 42 44 45 34 42 60 41 44 54 51 46 44 64 78 100
25 26 26 26 29 34 38 41 44 46 36 35 38 27 26 28 31 32 32 32 31 32 34 38 40 44 49 50 47 46 41 30 46 64 53 53 65 53 49 54 75 98 100
18 18 17 20 28 34 38 42 40 35 32 36 30 26 31 34 33 32 32 32 34 37 40 41 44 46 47 46 46 44 38 27 57 60 59 58 71 61 70 53 55 56 100
23 25 24 25 26 30 33 33 28 26 27 24 28 33 33 29 28 34 37 39 39 36 30 26 22 27 33 39 39 29 22 25 78 77 72 70 77 62 64 48 45 65 96
43 87 99 81 56 45 38 31 27 26 29 31 32 33 38 42 41 33 24 19 19 20 18 16 16 17 18 18 21 20 20 63 82 86 88 73 94 78 62 48 50 60 98
28 30 29 31 35 32 27 28 31 35 42 43 39 35 26 19 16 16 16 17 18 19 18 16 17 18 20 19 20 23 75 82 77 97 100 92 68 64 54 52 62 79 82
39 38 38 37 36 36 39 42 43 39 34 27 18 18 16 18 17 18 19 21 22 23 23 20 22 24 22 27 18 60 76 98 96 90 89 62 48 45 84 55 66 68 81
46 46 46 46 42 37 31 29 22 18 17 19 21 19 19 21 21 22 20 20 21 24 28 33 27 23 29 80 68 100 100 100 100 100 100 62 54 60 94 56 69 84 100
39 34 27 26 25 23 20 18 19 20 21 22 19 17 20 23 20 17 16 17 20 27 36 39 28 26 34 83 100 100 100 100 100 100 93 74 64 89 81 72 65 100 100
17 19 19 18 18 20 21 20 18 19 21 20 17 15 15 16 15 15 20 20 23 32 63 43 34 58 57 98 100 98 96 100 100 96 98 100 100 97 92 100 70 82 88
23 24 23 23 24 24 23 18 15 17 19 18 16 13 13 12 11 12 15 22 29 38 66 52 100 100 100 100 97 85 87 92 100 95 91 81 72 65 100 100 100 90 100
28 26 25 25 25 25 24 22 19 16 17 14 12 11 10 10 11 11 13 19 28 50 66 46 96 100 100 100 100 100 88 100 92 82 100 100 100 100 98 100 84 100 100
32 28 25 22 21 21 20 19 19 17 15 15 12 8 8 9 10 12 15 17 23 45 61 56 74 94 92 100 99 100 97 100 78 100 100 99 100 100 88 64 96 80 100
23 24 24 22 19 18 18 17 16 15 14 12 11 13 13 13 10 10 10 15 22 27 57 81 64 100 100 100 100 100 100 100 100 100 100 100 100 99 77 73 69 66 100
28 28 25 20 17 17 18 17 15 14 14 14 17 19 15 10 10 10 10 13 16 20 55 67 91 96 100 99 80 100 97 100 100 100 90 100 96 78 52 75 75 93 100
24 28 31 34 34 33 31 28 25 24 22 20 21 23 22 13 11 12 11 9 10 12 29 97 93 83 100 95 99 98 100 100 100 98 80 66 66 67 55 78 89 100 100
24 23 23 22 21 20 21 21 22 21 17 17 17 18 19 13 8 10 12 13 15 16 22 73 100 100 98 100 100 82 96 100 100 100 86 82 94 87 92 100 100 100 100
26 26 26 24 22 24 30 32 30 26 31 35 33 33 27 22 12 12 13 11 13 16 16 70 98 100 100 99 100 100 98 94 98 100 99 100 100 100 100 100 100 100 100
26 24 22 21 21 29 47 61 61 64 73 52 44 38 34 34 29 22 10 11 14 15 18 69 95 99 100 100 100 100 100 100 100 100 100 100 100 100 100 100 100 100 100
40 42 48 58 70 61 60 67 59 70 67 74 77 78 71 58 55 30 20 13 14 15 24 82 100 100 96 100 100 100 94 100 100 100 100 100 100 100 100 100 100 100 100
54 59 57 53 59 59 60 70 96 100 100 100 97 83 76 64 34 34 22 19 16 14 17 53 99 100 100 100 100 100 100 100 100 100 100 100 100 100 95 87 100 100 100
63 58 49 38 38 37 35 38 36 57 63 56 44 40 30 21 18 19 23 18 18 15 16 53 98 100 100 100 100 100 100 100 100 100 100 100 99 97 92 76 76 100 81
38 32 43 45 37 29 35 46 53 69 41 27 21 20 29 21 25 31 22 18 23 20 18 48 98 100 95 98 98 100 100 100 100 100 100 100 100 100 95 92 100 100 94
35 32 37 49 34 25 31 30 25 23 29 23 23 32 39 40 36 36 28 33 49 47 36 30 71 100 100 100 100 100 100 100 100 100 100 100 100 100 99 100 100 100 100
Wind_Speed
33 30 27 23 23 21 18 17 15 15 16 15 18 18 23 26 25 25 26 27 27 29 31 33 36 37 38 37 38 40 40 41 41 30 26 31 45 41 52 52 54 50 58
36 34 31 27 25 23 23 22 20 19 21 22 21 20 25 27 29 29 30 30 31 33 36 38 39 41 43 43 41 42 42 44 42 28 24 30 43 47 53 54 55 51 57
37 36 33 30 29 27 27 26 25 25 29 29 29 28 29 32 34 33 33 34 35 36 38 40 43 45 45 46 47 46 46 45 40 25 25 29 41 51 51 56 57 54 54
36 35 35 34 32 31 32 33 32 34 34 34 34 31 31 33 36 38 39 39 41 42 43 46 48 50 50 51 51 52 51 50 40 25 29 32 40 50 50 55 59 63 58
38 36 38 35 34 36 37 37 40 39 38 38 38 37 37 39 42 43 44 45 47 49 50 52 53 54 56 56 57 57 56 53 42 23 27 28 38 44 52 55 59 63 60
40 40 39 39 39 41 41 41 44 42 40 41 41 44 46 46 48 50 54 55 56 57 58 58 59 59 59 58 59 57 56 51 36 26 29 31 34 44 51 53 60 60 64
42 41 38 41 43 43 42 42 42 42 44 47 48 50 52 54 56 57 59 59 59 58 58 59 60 59 61 57 57 54 50 41 31 30 32 32 36 43 51 54 58 63 68
45 44 44 45 45 44 44 45 46 47 49 51 53 56 55 55 53 50 49 48 49 51 52 52 53 52 54 49 45 42 34 29 28 30 37 40 38 39 53 58 61 64 68
52 51 49 48 48 48 49 48 50 51 53 53 47 45 46 45 44 43 42 43 45 49 52 52 51 47 43 41 34 29 22 23 27 34 40 40 37 46 52 58 58 63 69
59 57 53 51 53 53 52 52 52 46 43 37 39 39 38 40 42 43 46 46 49 46 48 48 47 45 35 26 28 20 22 27 23 34 41 50 45 47 49 58 56 60 64
62 59 54 51 53 52 46 42 38 36 32 34 36 38 38 42 45 51 54 53 52 48 53 51 43 45 30 26 13 13 20 28 36 40 45 49 47 50 51 57 59 51 63
49 46 47 46 44 42 39 36 35 35 34 37 38 41 45 47 50 51 54 56 56 55 54 42 33 32 28 13 16 15 26 32 40 39 42 47 50 48 57 58 59 55 61
44 43 43 42 42 42 41 41 40 40 40 43 44 46 49 51 50 54 55 55 57 55 53 32 26 19 17 12 20 27 29 29 24 30 38 48 53 51 51 58 61 65 65
48 47 47 47 47 47 47 46 46 48 49 50 49 48 50 52 53 56 57 57 60 59 53 44 24 22 20 12 16 28 35 30 33 40 53 59 63 60 58 58 66 64 68
54 55 54 54 54 54 54 53 55 55 54 56 57 57 58 58 59 57 58 57 62 59 56 46 32 32 30 25 34 30 34 28 32 43 56 62 68 62 68 70 66 67 68
59 60 60 61 61 60 60 60 60 60 58 59 61 62 61 64 64 62 64 64 59 58 55 53 37 37 31 25 26 27 36 37 45 54 55 65 68 66 68 68 69 70 68
65 65 65 66 64 64 64 64 65 64 65 66 66 66 65 64 65 66 68 67 67 63 57 48 44 44 34 32 29 33 40 52 55 60 64 72 69 66 70 73 74 69 69
68 69 68 69 69 70 71 73 73 72 71 72 73 73 71 70 72 72 73 69 71 65 59 40 43 49 44 36 37 32 45 59 66 56 64 70 73 74 75 77 75 71 71
76 76 76 74 74 75 77 79 78 78 77 78 78 76 75 75 75 78 72 70 71 66 60 50 42 49 55 50 48 59 62 67 71 67 69 73 78 76 66 70 74 71 73
82 83 81 79 77 78 78 79 80 80 79 77 80 78 80 81 77 76 74 74 74 74 61 51 50 57 51 47 62 75 73 76 73 70 74 70 67 66 68 71 71 66 70
88 87 85 85 84 83 83 82 82 82 81 81 82 81 83 80 72 72 72 77 80 68 57 54 54 57 49 58 80 72 86 74 64 63 65 70 70 71 71 70 60 65 69
88 86 85 86 86 85 85 84 85 83 83 82 80 79 81 83 82 76 82 84 79 73 57 52 52 58 45 72 66 63 64 61 63 64 64 69 74 67 67 60 62 68 69
92 92 94 89 90 90 89 87 85 87 85 83 82 85 86 84 81 86 90 79 82 82 61 62 51 59 65 81 64 53 50 52 53 52 54 54 61 59 62 64 64 66 70
94 94 96 96 97 96 97 97 97 98 97 96 94 96 93 92 89 84 79 77 70 72 66 65 63 60 63 66 68 62 61 60 61 55 54 56 59 62 64 67 68 70 73
104 103 97 95 99 99 97 96 97 96 100 97 97 96 88 85 86 82 82 73 65 72 67 70 74 77 81 79 72 63 58 57 58 59 58 61 62 65 62 63 65 68 71
108 106 107 108 104 103 101 102 104 101 102 103 100 95 92 92 86 79 72 59 56 54 54 61 70 76 76 71 69 61 58 58 56 59 59 60 63 65 69 68 70 74 78
Wind_Direction
220 223 227 230 228 230 221 227 238 258 276 290 301 303 300 294 296 298 301 310 314 317 320 322 322 323 324 327 333 331 334 340 335 335 339 352 358 12 11 13 10 3 2
226 230 234 239 240 235 228 238 251 267 280 293 294 291 290 297 301 301 299 303 310 314 316 316 315 317 318 319 323 325 327 333 334 329 331 348 354 3 5 7 7 359 360
230 232 236 240 243 238 243 252 262 275 283 290 294 297 292 294 297 297 299 302 305 306 307 307 307 308 310 313 315 317 321 327 332 318 315 329 348 355 1 1 2 360 355
234 236 239 240 242 242 250 259 267 273 282 288 291 291 293 293 295 297 298 299 300 301 302 301 303 304 306 308 309 311 318 323 325 309 306 314 338 353 358 357 358 354 345
238 241 244 244 248 250 251 257 266 272 280 284 285 288 289 289 289 291 293 295 296 297 298 298 299 298 299 302 304 308 313 316 318 304 310 323 328 346 350 351 354 351 343
239 240 242 244 247 251 254 259 266 273 277 280 285 288 288 289 290 293 296 296 296 295 294 294 293 292 293 296 299 303 307 310 307 292 315 314 314 331 348 348 349 344 346
242 247 250 248 251 256 260 264 269 275 278 280 283 287 289 290 291 291 291 290 290 290 292 292 292 292 293 295 299 300 303 302 301 299 307 315 310 317 330 337 344 341 342
244 248 251 252 254 259 264 267 270 275 278 283 284 287 288 287 287 288 290 292 294 295 295 296 296 298 298 298 300 301 290 289 299 302 301 305 312 318 324 332 342 342 337
245 246 250 256 260 262 265 269 272 275 278 281 282 281 284 287 292 296 299 300 302 301 299 299 301 306 304 302 299 298 285 299 304 305 304 301 310 325 326 332 339 339 335
247 252 255 258 261 263 267 270 271 270 274 277 280 284 290 297 304 303 308 308 310 304 304 303 301 306 301 299 306 278 297 306 296 293 296 305 310 321 316 325 331 335 336
249 251 252 253 258 261 260 260 265 271 276 279 285 295 294 294 300 304 305 305 309 308 306 306 304 302 296 295 292 289 299 283 285 288 296 304 302 317 319 321 327 332 321
246 243 244 248 251 252 254 260 267 272 275 278 283 291 291 292 296 301 302 306 307 312 315 311 302 299 284 285 282 279 276 278 287 293 294 298 299 309 311 313 322 324 322
243 247 249 250 251 254 259 264 270 272 273 276 280 286 289 292 298 296 299 303 307 307 309 297 289 279 249 295 284 295 295 297 295 307 305 308 308 310 306 308 315 318 321
248 249 249 252 257 261 263 266 271 273 273 276 280 283 286 291 293 295 299 300 302 304 307 298 261 245 235 268 284 288 288 282 280 291 302 301 301 307 303 306 310 320 320
255 257 258 260 263 264 266 267 268 271 271 275 280 284 287 289 292 295 297 296 296 302 306 298 263 239 257 251 287 288 274 278 282 294 302 300 300 300 300 300 306 309 318
253 256 259 261 263 265 267 269 271 272 273 276 280 285 287 291 292 291 296 297 293 296 298 294 269 238 258 273 296 286 284 274 274 287 289 287 290 299 299 298 303 308 312
256 257 259 261 264 265 267 269 270 271 274 276 281 286 286 287 290 291 295 292 296 298 297 287 266 231 245 253 259 291 277 284 268 289 271 272 280 290 297 297 303 306 305
255 257 259 261 264 266 267 269 271 273 274 275 277 281 285 286 289 291 293 288 293 291 296 283 247 235 241 240 240 256 259 256 262 267 274 277 281 286 292 297 302 303 304
258 258 260 262 264 266 268 269 271 274 276 278 279 280 281 281 287 289 291 289 297 289 286 277 243 241 238 245 257 256 246 254 262 275 281 283 284 285 291 297 300 299 301
261 262 264 266 268 269 271 273 275 275 276 277 279 282 281 282 285 287 289 289 291 289 282 264 250 251 238 245 266 272 276 275 270 266 275 283 284 287 291 293 296 297 298
260 263 266 267 267 266 269 270 273 275 277 279 280 282 283 285 285 286 285 290 287 283 273 269 258 235 270 274 262 260 263 271 269 272 282 283 284 283 288 293 293 294 297
258 260 262 263 265 267 272 272 274 277 278 279 280 282 283 285 288 288 290 292 287 284 269 268 273 235 252 225 246 253 264 268 272 277 279 279 279 283 286 290 290 292 293
260 261 262 265 268 270 271 272 272 272 274 276 277 280 281 282 283 285 288 285 284 280 262 269 251 251 236 234 253 267 272 274 277 276 273 274 276 277 282 285 288 287 293
259 261 265 268 268 269 271 273 273 272 271 272 273 275 279 281 282 284 296 289 276 264 269 258 250 232 247 259 265 270 270 267 267 268 269 271 275 277 283 285 287 288 295
261 263 265 267 269 273 274 273 274 274 277 281 281 285 284 284 292 297 301 290 272 262 261 244 249 247 241 254 260 261 260 261 266 274 273 273 273 276 282 286 290 288 297
263 264 266 268 270 271 272 273 273 276 277 282 283 286 288 291 295 299 296 289 273 264 258 249 250 248 250 254 253 257 256 256 260 266 269 272 274 279 282 285 287 290 294